Location: Roanoke
(37.2710°N, 79.9420°W)
Time: 02:29:05
(UTC-05:00)

Transit 2A - Pass Details

Date: 27 November 2019
Orbit: 602 x 957 km, 66.7° (Epoch: 12 December)

Event Time Altitude Azimuth Distance (km) Brightness Sun altitude
Rises 10:43:13 0° 225° (SW) 3,205 9.5 28.3°
Reaches altitude 10° 10:45:50 10° 233° (SW) 2,222 8.7 28.5°
Maximum altitude 10:50:31 39° 302° (WNW) 1,023 6.6 28.8°
Drops below altitude 10° 10:54:51 10° 12° (NNE) 2,050 7.9 29.1°
Sets 10:57:11 0° 20° (NNE) 2,925 8.6 29.3°
